User: anonymous   Login
Location: Unspecified
(0.0000°N, 0.0000°E)
Time: 14:32:16
(UTC+00:00)
Language:

Fuji - Orbit

View from above orbital plane
View from above orbital plane
View from above satellite
View from above satellite

Ground track
Ground track

The orbit data is extracted from the following two-line orbital elements,

1 16909U 86061B   17084.92292066 -.00000098 +00000-0 -26716-5 0  9998
2 16909 050.0147 074.7748 0011132 227.7436 221.5644 12.44466777392433
Epoch (UTC): 25 March 2017 22:09:00
Eccentricity: 0.0011132
inclination: 50.0147°
perigee height: 1479 km
apogee height: 1496 km
right ascension of ascending node: 74.7748°
argument of perigee: 227.7436°
revolutions per day: 12.44466777
mean anomaly at epoch: 221.5644°
orbit number at epoch: 39243

The dashed part of the orbit path shows where the satellite is in the earth's shadow,  

DLR